Flag for Germany Weather past 2 weeks in Hameln, Lower Saxony, Germany

Now
75 °F

Broken clouds.


Feels Like: 78 °F
Forecast: 60 / 73 °F
Wind: 15 mph from Northeast

Location: Bueckeburg

Current Time: Jul 24, 2014 at 2:20:42 PM

Latest Report: Jul 24, 2014 at 1:20 PM


Visibility: N/A

Pressure: 30.01 "Hg

Humidity: 47%

Dew point: 54 °F

Location of HamelnLocation

Historic Weather in Hameln — Graph

°F

Hameln temperature yesterday

Maximum temperature yesterday: 81 °F (at 2:20 PM)
Minimum temperature yesterday: 63 °F (at 5:20 AM)
Average temperature yesterday: 73 °F

Past Weeks' High & Low Weather Summary

 TemperatureHumidityPressure
High91 °F (Jul 19, 4:20 PM)100% (Jul 10, 1:20 AM)30.18 "Hg (Jul 10, 1:20 AM)
Low52 °F (Jul 12, 6:20 AM)28% (Jul 19, 4:20 PM)29.62 "Hg (Jul 9, 2:02 PM)
Average70 °F70%29.95 "Hg
* Reported Jul 9 2:02 PM — Jul 24 12:20 PM, Hameln, Weather by CustomWeather, © 2014

Note: Actual official high and low records may vary slightly from our data, if they occured in-between our weather recording intervals... More about our weather records

Advertising

Hameln weather history for previous 24 hours

 ConditionsComfort  
Time TempWeatherWind HumidityBarometerVisibility
12:20 PM
Jul 24
75 °FScattered clouds.13 mph50%30.04 "HgN/A
11:20 AM73 °FScattered clouds.9 mph53%30.04 "HgN/A
10:20 AM70 °FScattered clouds.7 mph60%30.04 "HgN/A
9:20 AM68 °FScattered clouds.6 mph69%30.04 "HgN/A
8:20 AM64 °FPassing clouds.3 mph73%30.04 "HgN/A
7:20 AM59 °FPassing clouds.3 mph82%30.04 "HgN/A
6:20 AM59 °FPassing clouds.5 mph77%30.04 "HgN/A
5:20 AM59 °FPassing clouds.6 mph77%30.04 "HgN/A
4:20 AM61 °FPassing clouds.7 mph72%30.04 "HgN/A
3:20 AM61 °FCool.3 mph77%30.04 "HgN/A
2:20 AM63 °FMild.6 mph73%30.04 "HgN/A
1:20 AM66 °FPassing clouds.6 mph64%30.07 "HgN/A
12:20 AM68 °FPassing clouds.6 mph60%30.07 "HgN/A
11:20 PM
Jul 23
70 °FPassing clouds.8 mph57%30.07 "HgN/A
10:20 PM72 °FPassing clouds.6 mph53%30.07 "HgN/A
9:20 PM75 °FPassing clouds.5 mph47%30.04 "HgN/A
8:20 PM79 °FPassing clouds.8 mph39%30.04 "HgN/A
7:20 PM81 °FPassing clouds.9 mph34%30.04 "HgN/A
6:20 PM81 °FPassing clouds.10 mph39%30.04 "HgN/A
5:20 PM81 °FPassing clouds.9 mph42%30.04 "HgN/A
4:20 PM81 °FPassing clouds.10 mph42%30.07 "HgN/A
3:20 PM81 °FPassing clouds.12 mph45%30.07 "HgN/A
2:20 PM81 °FPassing clouds.10 mph48%30.09 "HgN/A
Weather by CustomWeather, © 2014

See weather overviewHow to use our weather pages